Station 46027 (LLNR 562) - ST GEORGES - 8 NM NW of Crescent City, CA Image indicating link to RSS feed of recent meteorological observations for station 46027


Conditions at 46027 as of
(7:40 pm PDT on 05/23/2024)
0240 GMT on 05/24/2024:
     

Click on the graph icon in the table below to see a time series plot of the last five days of that observation.

5-day plot - Wind Direction Wind Direction (WDIR): NW ( 320 deg true )
5-day plot - Wind Speed Wind Speed (WSPD): 19.4 kts
5-day plot - Wind Gust Wind Gust (GST): 23.3 kts
5-day plot - Atmospheric Pressure Atmospheric Pressure (PRES):30.02 in
5-day plot - Air Temperature Air Temperature (ATMP): 50.0 °F
5-day plot - Water Temperature Water Temperature (WTMP): 45.3 °F
5-day plot - Wind Chill Wind Chill (CHILL): 43.2 °F
5-day plot - Wind Speed at 10 Meters Wind Speed at 10 meters (WSPD10M): 21.4 kts
5-day plot - Wind Speed at 20 Meters Wind Speed at 20 meters (WSPD20M): 23.3 kts
5-day plot -  Wind Speed, Wind Gust and Atmospheric Pressure Combined plot of Wind Speed, Gust, and Air Pressure
Supplemental Measurements
Highest 1-minute Wind Speed
Time (PDT)5-day plot - 1-Minute Wind Speed WSPD 5-day plot - 1-Minute Wind Direction WDIR
7:31 pm 19.4 kts-
Previous observations
TIME
(PDT)
5-day plot - Wind Direction
WDIR
 
5-day plot - Wind Speed
WSPD
kts
5-day plot - Wind Gust
GST
kts
5-day plot - Wave Height
WVHT
ft
5-day plot - Dominant Wave Period
DPD
sec
5-day plot - Average Wave Period
APD
sec
5-day plot - Mean Wave Direction
MWD
 
5-day plot - Atmospheric Pressure
PRES
in
5-day plot - Pressure Tendency
PTDY
in
5-day plot - Air Temperature
ATMP
°F
5-day plot - Water Temperature
WTMP
°F
5-day plot - Dew Point
DEWP
°F
5-day plot - Salinity
SAL
psu
5-day plot - Visibility
VIS
nmi
5-day plot - Tide (above MLLW)
TIDE
ft
2024-05-23 07:30 pm NW 19.4 25.3----30.01- 50.0 45.3----
2024-05-23 07:20 pm NW 19.4 23.3 6.6 85.2 NW30.02- 50.0 45.3----
2024-05-23 07:10 pm NW 19.4 23.3 6.6-5.2 NW30.02- 50.0 45.3----
2024-05-23 07:00 pm NW 19.4 23.3----30.02-0.03 50.0 45.3----
2024-05-23 06:50 pm NW 19.4 23.3 6.6 65.1 NW30.02- 50.0 45.3----
2024-05-23 06:40 pm NW 19.4 23.3 6.6-5.1 NW30.02- 49.8 45.5----
2024-05-23 06:30 pm NW 19.4 25.3----30.02- 50.0 45.5----
2024-05-23 06:20 pmNNW 19.4 25.3 6.6 85.2 NW30.02- 49.8 45.7----
2024-05-23 06:10 pm NW 19.4 23.3----30.02- 50.0 45.9----
2024-05-23 06:00 pmNNW 19.4 23.3----30.03-0.03 49.8 46.0----
2024-05-23 05:50 pmNNW 19.4 23.3 5.9 64.9WNW30.03- 49.8 46.2----
2024-05-23 05:40 pmNNW 19.4 23.3----30.03- 49.8 46.2----
2024-05-23 05:30 pmNNW 19.4 23.3----30.03- 49.8 46.2----
2024-05-23 05:20 pmNNW 19.4 25.3 5.9 95.0 NW30.03- 49.8 46.2----
2024-05-23 05:10 pmNNW 19.4 25.3 5.9-5.0 NW30.03- 49.8 46.4----
2024-05-23 05:00 pmNNW 21.4 25.3----30.03-0.04 50.0 46.4----
2024-05-23 04:50 pmNNW 21.4 25.3 5.6 55.0WNW30.03- 50.0 46.4----
2024-05-23 04:40 pmNNW 21.4 25.3----30.04- 50.0 46.4----
2024-05-23 04:20 pmNNW 21.4 25.3 6.2 85.1 NW30.04- 49.8 46.6----
2024-05-23 04:10 pmNNW 21.4 25.3----30.04- 49.8 46.6----
2024-05-23 04:00 pmNNW 19.4 23.3----30.04-0.04 49.8 46.0----
2024-05-23 03:50 pmNNW 19.4 25.3 6.6 95.4 NW30.05- 49.6 45.7----
2024-05-23 03:40 pmNNW 19.4 25.3 6.6-5.4 NW30.05- 49.6 45.9----
2024-05-23 03:30 pmNNW 19.4 23.3----30.05- 49.6 45.9----
2024-05-23 03:20 pmNNW 17.5 23.3 6.9 85.5WNW30.06- 49.5 45.9----
2024-05-23 03:10 pmNNW 17.5 21.4 6.9-5.5WNW30.06- 49.5 45.9----
2024-05-23 03:00 pmNNW 19.4 21.4----30.06-0.04 49.5 45.9----
2024-05-23 02:50 pmNNW 19.4 23.3 6.6 95.3 NW30.06- 49.6 45.9----
2024-05-23 02:40 pmNNW 19.4 23.3----30.06- 49.6 46.0----
2024-05-23 02:30 pmNNW 19.4 23.3----30.06- 49.6 46.0----
2024-05-23 02:20 pmNNW 19.4 23.3 5.9 105.4WNW30.06- 49.6 46.0----
2024-05-23 02:10 pmNNW 17.5 21.4 5.9-5.4WNW30.06- 49.5 46.0----
2024-05-23 02:00 pmNNW 17.5 21.4----30.07-0.04 49.5 46.0----
2024-05-23 01:50 pmNNW 17.5 21.4 5.9 95.3WNW30.07- 49.5 46.0----
2024-05-23 01:40 pmNNW 17.5 21.4 5.9-5.3WNW30.07- 49.3 46.0----
2024-05-23 01:30 pmNNW 17.5 21.4----30.08- 49.3 46.0----
2024-05-23 01:20 pmNNW 15.5 19.4 5.6 95.4 NW30.08- 49.3 46.0----
2024-05-23 01:10 pmNNW 15.5 19.4 5.6-5.4 NW30.08- 49.1 46.0----
2024-05-23 01:00 pmNNW 15.5 19.4----30.09-0.03 49.1 46.0----
2024-05-23 12:50 pmNNW 15.5 19.4 5.9 105.4 NW30.09- 48.9 45.7----
2024-05-23 12:40 pmNNW 15.5 19.4 5.9-5.4 NW30.09- 48.9 45.7----
2024-05-23 12:30 pmNNW 15.5 19.4----30.09- 48.9 45.5----
2024-05-23 12:20 pmNNW 13.6 17.5 5.9 105.3WNW30.10- 48.9 45.5----
2024-05-23 12:10 pmNNW 13.6 17.5 5.9-5.3WNW30.10- 48.9 45.5----
2024-05-23 12:00 pmNNW 15.5 19.4----30.10-0.03 48.9 45.3----
2024-05-23 11:50 amNNW 15.5 19.4 5.6 85.4 NW30.10- 48.7 45.3----
2024-05-23 11:40 amNNW 15.5 19.4----30.10- 48.7 45.5----
2024-05-23 11:30 amNNW 13.6 17.5----30.10- 48.7 45.5----
2024-05-23 11:20 amNNW 15.5 17.5 4.9 95.4 NW30.10- 48.7 45.5----
2024-05-23 11:10 amNNW 15.5 19.4----30.11- 48.6 45.5----
2024-05-23 11:00 amNNW 13.6 19.4----30.11-0.03 48.6 45.5----
2024-05-23 10:50 amNNW 15.5 19.4 5.6 105.6WNW30.11- 48.4 45.3----
2024-05-23 10:40 amNNW 15.5 19.4----30.11- 48.2 45.5----
2024-05-23 10:30 amNNW 13.6 17.5----30.11- 47.8 45.5----
2024-05-23 10:20 amNNW 15.5 17.5 5.6 95.7 NW30.11- 47.7 45.5----
2024-05-23 10:10 amNNW 13.6 17.5 5.6-5.7 NW30.11- 47.7 45.5----
2024-05-23 10:00 amNNW 13.6 17.5----30.11-0.02 47.7 45.5----
2024-05-23 09:50 amNNW 15.5 19.4 5.6 95.8 NW30.12- 47.8 45.3----
2024-05-23 09:40 amNNW 15.5 17.5----30.12- 47.7 45.3----
2024-05-23 09:30 am N 13.6 15.5----30.12- 47.7 45.3----
2024-05-23 09:20 am N 13.6 15.5 5.9 106.0 NW30.12- 47.7 45.1----
2024-05-23 09:10 am N 13.6 15.5 5.9-6.0 NW30.13- 47.5 45.1----
2024-05-23 09:00 am N 13.6 15.5----30.13+0.00 47.5 45.1----
2024-05-23 08:50 am N 13.6 17.5 5.2 105.8WNW30.13- 47.5 45.1----
2024-05-23 08:40 am N 13.6 17.5 5.2-5.8WNW30.13- 47.5 45.1----
2024-05-23 08:30 am N 13.6 15.5----30.13- 47.5 45.1----
2024-05-23 08:20 am N 13.6 15.5 5.6 105.9 NW30.13- 47.3 45.1----
2024-05-23 08:10 am N 11.7 15.5 5.6-5.9 NW30.13- 47.3 45.0----
2024-05-23 08:00 am N 11.7 13.6----30.14+0.00 47.3 45.0----
2024-05-23 07:50 am N 11.7 13.6 5.9 96.1WNW30.14- 47.3 45.0----
2024-05-23 07:40 am N 11.7 13.6 5.9-6.1WNW30.14- 47.3 45.0----
2024-05-23 07:30 am N 11.7 13.6----30.14- 47.1 45.1----
2024-05-23 07:20 am N 9.7 11.7 5.6 105.9 NW30.14- 46.8 45.0----
2024-05-23 07:10 am N 7.8 9.7 5.6-5.9 NW30.14- 46.4 45.0----
2024-05-23 07:00 am N 5.8 7.8----30.13+0.00 46.2 45.0----
2024-05-23 06:50 amNNE 5.8 9.7 6.2 96.1WNW30.13- 46.2 45.0----
2024-05-23 06:40 amNNE 7.8 9.7----30.13- 46.8 45.0----
2024-05-23 06:30 am N 9.7 13.6----30.13- 47.3 45.0----
2024-05-23 06:20 am N 11.7 15.5 6.2 116.0WNW30.13- 47.3 45.0----
2024-05-23 06:10 am N 11.7 15.5 6.2-6.0WNW30.12- 47.3 45.0----
2024-05-23 06:00 am N 13.6 15.5----30.12-0.01 47.1 45.0----
2024-05-23 05:50 am N 11.7 15.5 6.2 115.9 NW30.13- 47.1 45.0----
2024-05-23 05:40 am N 11.7 15.5----30.13- 47.1 45.0----
2024-05-23 05:30 am N 11.7 15.5----30.13- 47.1 45.0----
2024-05-23 05:20 am N 13.6 15.5 6.6 96.0WNW30.13- 47.1 45.0----
2024-05-23 05:10 am N 13.6 15.5 6.6-6.0WNW30.13- 47.1 45.0----
2024-05-23 05:00 amNNW 13.6 15.5----30.13+0.00 47.1 45.0----
2024-05-23 04:50 amNNW 13.6 17.5 7.2 116.3 NW30.13- 47.1 45.0----
2024-05-23 04:40 am N 13.6 15.5----30.13- 47.3 45.0----
2024-05-23 04:30 am N 13.6 15.5----30.13- 47.3 45.0----
2024-05-23 04:20 am N 13.6 17.5 6.9 115.9 NW30.14- 47.5 45.0----
2024-05-23 04:10 amNNW 13.6 17.5----30.14- 47.5 45.1----
2024-05-23 04:00 amNNW 15.5 19.4----30.14+0.00 47.5 45.0----
2024-05-23 03:50 amNNW 15.5 17.5 6.9 115.8 NW30.13- 47.7 45.1----
2024-05-23 03:40 am N 15.5 17.5 6.9-5.8 NW30.14- 47.7 45.1----
2024-05-23 03:30 am N 15.5 19.4----30.13- 47.7 45.1----
2024-05-23 03:20 amNNW 15.5 19.4 7.2 96.0 NW30.14- 47.7 45.1----
2024-05-23 03:10 am N 17.5 19.4 7.2-6.0 NW30.14- 47.7 45.1----
2024-05-23 03:00 amNNW 17.5 23.3----30.14+0.00 47.8 45.1----
2024-05-23 02:50 amNNW 17.5 21.4 7.2 85.8WNW30.14- 47.8 45.1----
2024-05-23 02:40 amNNW 17.5 21.4 7.2-5.8WNW30.14- 47.8 45.1----
2024-05-23 02:30 amNNW 17.5 23.3----30.14- 47.8 45.1----
2024-05-23 02:20 amNNW 17.5 23.3 7.2 105.9 NW30.14- 47.8 45.1----
2024-05-23 02:10 amNNW 17.5 23.3 7.2-5.9 NW30.14- 47.8 45.1----
2024-05-23 02:00 amNNW 17.5 23.3----30.14-0.01 48.0 45.1----
2024-05-23 01:50 amNNW 17.5 23.3 7.2 85.8WNW30.14- 48.0 45.1----
2024-05-23 01:40 am N 17.5 23.3----30.14- 48.2 45.1----
2024-05-23 01:30 am N 17.5 23.3----30.14- 48.2 45.1----
2024-05-23 01:20 am N 17.5 23.3 7.5 85.6 W30.14- 48.2 45.1----
2024-05-23 01:10 am N 17.5 21.4 7.5-5.6 W30.14- 48.4 45.1----
2024-05-23 01:00 am N 19.4 21.4----30.14+0.00 48.4 45.1----
2024-05-23 12:50 am N 19.4 23.3 7.2 85.6WNW30.14- 48.4 45.1----
2024-05-23 12:40 am N 17.5 23.3 7.2-5.6WNW30.14- 48.4 45.1----
2024-05-23 12:30 am N 19.4 23.3----30.14- 48.4 45.1----
2024-05-23 12:20 am N 19.4 25.3 7.2 85.7WNW30.14- 48.4 45.1----
2024-05-23 12:10 am N 19.4 23.3 7.2-5.7WNW30.14- 48.4 45.1----
2024-05-23 12:00 am N 19.4 23.3----30.14+0.00 48.4 45.1----
2024-05-22 11:50 pm N 19.4 23.3 7.2 85.7WNW30.14- 48.4 45.1----
2024-05-22 11:40 pmNNW 19.4 23.3----30.14- 48.4 45.1----
2024-05-22 11:30 pmNNW 19.4 23.3----30.14- 48.6 45.3----
2024-05-22 11:20 pmNNW 19.4 21.4 7.2 85.5WNW30.14- 48.4 45.3----
2024-05-22 11:10 pmNNW 19.4 23.3----30.14- 48.6 45.3----
2024-05-22 11:00 pmNNW 17.5 23.3----30.15+0.01 48.6 45.3----
2024-05-22 10:50 pm N 19.4 23.3 7.2 85.7WNW30.15- 48.6 45.3----
2024-05-22 10:40 pmNNW 19.4 25.3----30.15- 48.7 45.3----
2024-05-22 10:30 pmNNW 19.4 23.3----30.15- 48.7 45.3----
2024-05-22 10:20 pmNNW 21.4 25.3 7.5 85.7WNW30.15- 48.9 45.3----
2024-05-22 10:10 pmNNW 21.4 27.2 7.5-5.7WNW30.14- 48.9 45.3----
2024-05-22 10:00 pmNNW 21.4 27.2----30.14+0.00 48.9 45.3----
2024-05-22 09:50 pmNNW 21.4 25.3 6.9 85.4WNW30.14- 48.9 45.3----
2024-05-22 09:40 pmNNW 19.4 25.3----30.14- 48.9 45.3----
2024-05-22 09:30 pmNNW 21.4 25.3----30.14- 48.9 45.3----
2024-05-22 09:20 pmNNW 19.4 25.3 7.2 85.6WNW30.14- 48.9 45.3----
2024-05-22 09:10 pmNNW 19.4 25.3 7.2-5.6WNW30.14- 48.9 45.3----
2024-05-22 09:00 pmNNW 19.4 27.2----30.14-0.01 48.9 45.3----
2024-05-22 08:50 pmNNW 21.4 25.3 6.9 85.6WNW30.13- 48.9 45.3----
2024-05-22 08:40 pmNNW 19.4 25.3----30.14- 48.9 45.3----
2024-05-22 08:30 pmNNW 19.4 25.3----30.13- 48.9 45.3----
2024-05-22 08:20 pmNNW 19.4 25.3 7.2 85.6WNW30.14- 48.9 45.3----
2024-05-22 08:10 pmNNW 19.4 25.3 7.2-5.6WNW30.14- 48.9 45.3----
2024-05-22 08:00 pmNNW 19.4 23.3----30.14+0.00 48.9 45.5----
2024-05-22 07:50 pmNNW 21.4 25.3 6.6 85.4WNW30.14- 49.3 45.5----

Detailed Wave Summary
for 46027 as of
(7:10 pm PDT on 05/23/2024)
0210 GMT on 05/24/2024:

These wave data are displayed in rounded times.

     

Click on the graph icon in the table below to see a time series plot of the last five days of that observation.

5-day plot - Significant Wave Height Significant Wave Height (WVHT): 6.6 ft
5-day plot - Swell Height Swell Height (SwH): 2.6 ft
5-day plot - Swell Period Swell Period (SwP): 14.8 sec
5-day plot - Swell Direction Swell Direction (SwD): SW
5-day plot - Wind Wave Height Wind Wave Height (WWH): 5.9 ft
5-day plot - Wind Wave Period Wind Wave Period (WWP): 8.3 sec
5-day plot - Wind Wave Direction Wind Wave Direction (WWD): NW
5-day plot - Wave Steepness Wave Steepness (STEEPNESS): AVERAGE
5-day plot - Average Wave Period Average Wave Period (APD): 5.2 sec
Previous observations
TIME
(PDT)
5-day plot - Wave Height
WVHT
ft
5-day plot - Swell Height
SwH
ft
5-day plot - Swell Period
SwP
sec
5-day plot - Swell Direction
SwD
 
5-day plot - Wind Wave Height
WWH
ft
5-day plot - Wind Wave Period
WWP
sec
5-day plot - Wind Wave Direction
WWD
 
5-day plot - Wave Steepness
STEEPNESS
 
5-day plot - Average Wave Period
APD
sec
2024-05-23 06:40 pm 6.6 2.6 9.1WNW 6.2 5.9 NWVERY_STEEP 5.1
2024-05-23 06:10 pm 6.6 3.3 8.3 NW 5.6 5.3 NW AVERAGE 5.2
2024-05-23 05:40 pm 5.9 3.0 9.1 NW 4.9 5.9 WNWVERY_STEEP 4.9
2024-05-23 05:10 pm 5.9 3.0 9.1 NW 4.9 5.6 NW AVERAGE 5.0
2024-05-23 04:40 pm 5.6 3.0 9.1WNW 4.9 5.0 WNWVERY_STEEP 5.0
2024-05-23 04:10 pm 6.2 3.9 8.3 NW 4.9 5.0 WNW AVERAGE 5.1
2024-05-23 03:40 pm 6.6 3.9 9.1 NW 4.9 5.6 WNW AVERAGE 5.4
2024-05-23 03:10 pm 6.9 4.3 8.3WNW 5.6 5.6 WNW AVERAGE 5.5
2024-05-23 02:40 pm 6.6 4.6 9.1 NW 4.9 5.3 WNW AVERAGE 5.3
2024-05-23 02:10 pm 5.9 4.3 10.0WNW 4.3 5.0 WNW SWELL 5.4
2024-05-23 01:40 pm 5.9 3.9 9.1WNW 4.6 5.3 WNW AVERAGE 5.3
2024-05-23 01:10 pm 5.6 3.9 9.1 NW 3.9 5.0 WNW AVERAGE 5.4
2024-05-23 12:40 pm 5.9 3.9 10.0 NW 4.3 4.5 WNW AVERAGE 5.4
2024-05-23 12:10 pm 5.9 3.9 10.0WNW 4.3 4.5 WNW AVERAGE 5.3
2024-05-23 11:40 am 5.6 4.3 8.3 NW 3.9 5.9 WNW AVERAGE 5.4
2024-05-23 11:10 am 4.9 3.6 9.1 NW 3.3 5.6 W AVERAGE 5.4
2024-05-23 10:40 am 5.6 4.3 10.0WNW 3.3 5.9 WNW SWELL 5.6
2024-05-23 10:10 am 5.6 4.3 9.1 NW 3.6 5.3 WNW AVERAGE 5.7
2024-05-23 09:40 am 5.6 4.3 9.1 NW 3.6 6.2 WNW AVERAGE 5.8
2024-05-23 09:10 am 5.9 4.9 10.0 NW 3.6 5.9 WNW SWELL 6.0
2024-05-23 08:40 am 5.2 3.9 10.0WNW 3.3 5.9 WNW SWELL 5.8
2024-05-23 08:10 am 5.6 4.6 10.0 NW 3.0 5.0 WNW SWELL 5.9
2024-05-23 07:40 am 5.9 4.9 9.1WNW 3.0 5.6 WNW AVERAGE 6.1
2024-05-23 07:10 am 5.6 5.2 10.0 NW 2.0 3.8 W SWELL 5.9
2024-05-23 06:40 am 6.2 5.9 9.1WNW 2.0 3.8 WNW AVERAGE 6.1
2024-05-23 06:10 am 6.2 4.9 10.8WNW 3.6 6.2 WNW SWELL 6.0
2024-05-23 05:40 am 6.2 4.9 10.8 NW 3.6 5.3 WNW SWELL 5.9
2024-05-23 05:10 am 6.6 5.2 9.1WNW 3.9 5.9 W AVERAGE 6.0
2024-05-23 04:40 am 7.2 5.9 10.8 NW 4.3 6.2 WNW SWELL 6.3
2024-05-23 04:10 am 6.9 4.9 10.8 NW 4.6 5.0 WNW SWELL 5.9
2024-05-23 03:40 am 6.9 4.3 10.8 NW 5.2 6.2 WNW AVERAGE 5.8
2024-05-23 03:10 am 7.2 4.9 9.1 NW 5.2 7.7 WNW AVERAGE 6.0
2024-05-23 02:40 am 7.2 4.6 8.3WNW 5.6 7.1 WNW STEEP 5.8
2024-05-23 02:10 am 7.2 4.9 10.0 NW 5.2 5.9 WNW AVERAGE 5.9
2024-05-23 01:40 am 7.2 5.6 8.3WNW 4.9 6.7 WNW STEEP 5.8
2024-05-23 01:10 am 7.5 3.9 10.0 NW 6.2 7.7 W STEEP 5.6
2024-05-23 12:40 am 7.2 4.6 7.7WNW 5.2 6.2 WNW STEEP 5.6
2024-05-23 12:10 am 7.2 3.9 9.1WNW 5.9 7.7 WNW STEEP 5.7
2024-05-22 11:40 pm 7.2 3.3 16.0 SW 6.6 7.7 WNW STEEP 5.7
2024-05-22 11:10 pm 7.2 3.9 8.3WNW 6.2 5.9 W STEEP 5.5
2024-05-22 10:40 pm 7.2 4.9 8.3WNW 5.2 5.3 WNW STEEP 5.7
2024-05-22 10:10 pm 7.5 5.2 8.3WNW 5.2 4.8 WNW STEEP 5.7
2024-05-22 09:40 pm 6.9 4.6 8.3WNW 5.2 5.6 WNW AVERAGE 5.4
2024-05-22 09:10 pm 7.2 4.9 7.7WNW 5.2 5.3 WNW STEEP 5.6
2024-05-22 08:40 pm 6.9 4.6 8.3WNW 5.2 5.0 WNW AVERAGE 5.6
2024-05-22 08:10 pm 7.2 4.9 7.7WNW 5.2 5.6 WNW STEEP 5.6

Plot of wave energy versus frequency (and period)